星链-3832 (STARLINK-3832 )

导读

STARLINK-3832是美国SpaceX公司星链(Starlink)星座中的一颗卫星,于2022年5月14日发射升空。星链项目旨在构建全球覆盖的低轨卫星互联网系统,为地面提供高速宽带服务。该卫星运行在近地轨道,是星链大规模组网的组成部分,支撑星座向航空、航海、偏远地区等场景提供通信服务,推动全球卫星互联网的覆盖与拓展。

基本信息
目录编号:
52646
目录名称:
STARLINK-3832
国际标识:
2022-052BA
轨道中心:
EARTH
卫星名称:
星链-3832
卫星全名:
星链-3832 (STARLINK-3832 )
卫星状态:
在轨 (已飞行1574 天)
发射日期:
2022-05-14 UTC
国别 :
美国 (US)
星等 :
--
轨道信息
数据来源 国际轨道数据
星历时间: 2026-09-03T13:51:41+0800
21小时前
查看轨道信息
半长轴: 6843.382km
偏心率: 0.0001287
轨道倾角: 53.160°
近地点辐角 90.594°
升交点赤经 172.344°
平近点角 269.521°
近地点: 464.364km
远地点: 466.126km
周期: 93.900分钟
每日圈数: 15.335455
详细信息
固有亮度:
5
最大亮度:
2.5
卫星平台:
Starlink v1.5
覆盖范围:
全球
运营商:
太空探索技术公司
运营商所在国:
美国
制造商(研发单位):
太空探索技术公司
制造商所在国:
美国
使用方式:
暂无
卫星简介
星链(Starlink)计划是由太空探索技术公司(SpaceX)提出的一个巨型低轨卫星互联网星座项目,计划在2019年至2024年间在太空搭建由约1.2万颗卫星组成的“星链”网络,其中1584颗将部署在地球上空550千米处的近地轨道,并从2020年开始工作。该卫星仍在工作。
2D轨道图
3D轨道图
轨道高度分析图
轨道倾角分析图
轨道综合分析图
查看轨道综合分析图
交会数据列表
事件ID 空间交会对象 最接近时刻(TCA) 交会距离 交会风险概率(CRP) 交会风险指数(CRI) 操作
CDM_260829-202105-264605-912123
2026-08-29T
20:21:03+0000
2.027 km
极远距离
2.758154E-6 低风险 0.44
CDM_260905-104405-264606-543821
2026-09-05T
10:44:50+0000
1.935 km
极远距离
2.303865E-6 低风险 0.42
CDM_260829-215705-264606-839021
2026-08-29T
21:57:29+0000
2.310 km
极远距离
2.03553E-6 低风险 0.41
CDM_260829-175305-264606-830622
2026-08-29T
17:53:08+0000
2.408 km
极远距离
1.878675E-6 低风险 0.4
CDM_260903-130005-264605-348824
2026-09-03T
13:00:42+0000
2.602 km
极远距离
1.630319E-6 低风险 0.39
CDM_260903-063905-264606-609122
2026-09-03T
06:39:52+0000
2.558 km
极远距离
1.505353E-6 低风险 0.39
CDM_260829-184005-264606-830622
2026-08-29T
18:40:06+0000
2.777 km
极远距离
1.478758E-6 低风险 0.38
CDM_260830-202405-264606-771221
2026-08-30T
20:24:07+0000
2.827 km
极远距离
1.436354E-6 低风险 0.38
CDM_260905-055805-264606-815621
2026-09-05T
05:58:20+0000
2.678 km
极远距离
1.399282E-6 低风险 0.38
CDM_260905-045805-264606-984721
2026-09-05T
04:58:34+0000
2.564 km
极远距离
1.378548E-6 低风险 0.38